Theta_e
322 321 320 318 319 320 319 318 317 316 316 317 318 318 318 319 320 321 321 321 322 319 315 314 313 311 312 311 310 308 306 305 303 302 302 301 300 300 300 299 298 297 296 295 295 294 293 292 291 290 290 289 289 289 288 288 287 287 287 287 287 287 286 286 286 287 286 286 286 286 287 287 287 287 287 287 286 286 285 284 284 284 283 282 282 282 282
321 321 320 318 317 319 319 319 318 316 316 316 316 316 316 318 319 319 320 321 321 318 315 314 313 313 312 311 310 308 307 306 303 302 301 300 300 299 299 298 297 297 297 296 296 294 293 292 291 291 290 290 289 289 289 288 287 287 287 287 287 286 286 286 286 286 286 286 286 287 287 287 287 287 287 287 286 286 285 284 284 283 283 282 281 282 282
320 321 320 318 317 318 318 318 318 318 317 316 316 316 316 317 318 317 318 320 319 317 315 314 314 313 313 312 310 308 308 307 305 304 302 301 300 299 298 298 298 297 297 298 297 295 293 292 291 291 290 290 289 289 288 288 287 287 287 287 287 287 286 286 286 286 286 286 287 287 287 286 287 287 287 286 286 285 285 284 284 283 282 282 281 282 282
320 320 320 319 316 317 318 318 318 317 318 316 315 315 315 315 316 317 317 318 317 316 317 317 315 313 313 312 311 309 308 308 306 305 304 302 300 299 298 298 298 297 297 297 297 296 294 293 292 291 290 290 289 289 288 288 287 287 287 287 287 287 286 286 286 286 286 287 287 287 286 286 286 287 287 286 285 285 285 284 283 283 282 281 282 282 282
321 319 319 318 316 318 320 319 318 317 317 317 315 315 315 314 315 316 317 317 317 317 319 318 315 314 314 313 311 310 309 308 306 305 304 303 302 300 299 298 298 298 297 297 297 296 294 293 292 291 291 290 289 289 289 288 288 287 287 287 287 287 286 286 286 286 286 287 286 286 286 286 286 286 286 286 285 285 285 284 283 282 282 282 282 282 282
320 316 316 317 319 322 320 317 318 317 316 317 316 315 315 314 315 315 315 316 317 316 316 316 315 314 314 313 311 310 309 307 305 303 303 303 302 301 300 299 298 298 298 297 297 296 295 294 293 292 292 291 290 290 289 289 288 288 287 286 286 286 286 286 286 286 286 286 286 286 286 286 286 286 286 285 285 284 284 283 283 282 282 282 282 282 281
316 312 315 320 322 321 315 310 310 312 313 315 316 315 315 314 314 313 313 314 314 313 313 313 313 312 310 309 307 307 306 306 305 303 302 302 302 301 300 299 299 298 298 298 297 297 296 295 294 293 292 292 291 290 289 289 288 288 287 287 286 286 286 286 286 286 286 286 286 286 286 285 285 285 285 284 284 284 284 283 282 282 282 283 282 282 280
313 312 317 322 321 316 309 304 304 308 313 315 316 317 316 314 313 313 312 313 312 312 311 309 307 306 305 303 303 303 303 304 304 302 303 302 301 301 300 299 299 299 298 298 297 297 296 295 295 294 293 292 291 290 289 289 288 288 287 287 287 286 286 286 286 286 286 286 286 285 285 285 285 285 284 284 284 284 283 282 281 281 282 283 282 281 280
314 314 316 318 319 317 311 305 305 309 313 314 316 318 317 315 315 314 313 313 313 312 308 303 300 300 301 303 303 301 300 302 303 302 302 302 301 300 300 299 299 298 298 297 297 296 296 295 294 294 293 292 291 290 290 289 288 288 287 287 287 286 286 286 286 286 286 285 285 285 285 285 285 284 284 284 283 283 283 282 281 281 282 282 282 280 279
315 315 316 316 318 320 315 310 307 307 310 312 314 317 317 314 315 316 315 315 314 311 304 299 298 301 304 306 306 301 299 300 300 301 301 300 299 299 298 297 296 296 296 296 295 295 295 294 293 293 293 292 291 291 290 289 288 287 287 287 286 286 286 286 286 286 285 285 285 285 285 285 285 284 284 283 283 283 283 282 281 281 282 282 281 279 278
314 315 317 317 318 317 314 309 304 302 306 310 312 314 314 312 313 315 315 314 313 310 303 299 300 303 307 309 307 302 299 298 298 299 298 297 296 296 296 295 294 294 294 294 293 293 293 293 292 292 292 292 291 290 290 289 288 287 287 287 286 286 286 286 286 286 285 285 285 285 285 285 285 284 283 283 283 282 282 281 280 281 282 281 280 279 278
314 314 315 316 316 315 310 304 299 299 302 307 313 314 312 309 309 310 312 312 310 307 302 299 301 306 308 309 304 299 298 297 296 297 297 295 294 293 293 293 293 293 292 292 292 292 292 292 292 291 291 291 291 290 290 289 288 288 288 288 287 287 287 286 286 286 285 285 285 284 285 285 284 284 283 282 282 282 281 280 280 280 281 280 279 278 277
313 314 315 314 315 313 307 300 297 298 301 307 313 313 307 304 302 302 305 308 306 302 300 300 302 305 303 301 298 295 295 296 295 294 294 293 293 292 292 292 292 291 291 291 292 291 291 292 292 292 292 291 290 290 289 289 289 290 291 290 289 288 287 286 286 286 285 285 285 285 285 284 284 283 283 282 282 282 281 280 280 280 279 278 277 276 276
313 314 314 314 315 310 302 297 296 298 304 310 311 305 300 300 300 299 301 304 303 301 301 301 302 300 296 295 295 293 294 294 293 292 291 291 291 290 290 291 291 291 290 290 291 291 292 292 293 293 292 291 291 290 289 289 292 293 292 291 290 289 288 288 287 287 286 286 285 285 285 284 283 283 282 282 281 281 280 279 279 278 278 277 276 275 275
311 312 313 316 315 306 299 298 298 299 304 308 305 299 296 297 298 299 300 300 300 300 301 300 298 296 293 293 294 293 293 293 292 291 291 290 290 289 289 290 290 290 290 291 291 292 292 293 294 293 292 291 290 289 289 292 293 293 292 292 291 290 289 289 288 288 287 287 286 285 285 285 284 283 282 281 281 280 279 279 278 277 276 276 275 274 274
311 312 313 311 308 302 300 301 303 303 303 301 299 299 298 295 295 297 299 298 297 298 300 299 296 294 293 293 293 292 292 292 291 290 290 290 290 290 289 290 291 291 291 291 291 292 292 293 293 292 292 292 290 289 291 293 293 292 292 291 290 289 289 289 289 289 288 288 287 286 285 285 283 282 281 280 280 279 278 278 277 276 275 274 274 273 273
308 309 308 302 299 298 298 299 302 303 301 298 297 299 299 297 296 296 297 298 296 296 297 296 295 293 293 293 292 292 292 291 291 291 290 290 290 290 289 290 291 292 292 291 291 291 291 292 293 292 292 291 290 290 291 292 291 291 291 290 289 289 289 289 289 289 288 287 286 286 285 284 282 281 280 280 279 278 278 277 276 275 274 273 273 273 272
303 302 300 297 297 298 297 296 297 298 297 296 297 299 299 298 297 296 296 297 296 294 294 295 294 293 293 292 292 292 292 291 291 290 290 290 290 289 289 289 290 291 291 290 290 290 290 291 291 292 291 291 290 291 291 291 290 290 290 289 289 289 289 289 288 287 286 285 285 284 283 282 281 280 280 279 278 277 277 276 275 275 273 273 272 272 272
305 302 298 295 296 297 296 296 295 295 294 294 295 297 298 296 295 294 295 295 294 293 293 293 293 293 292 292 292 291 291 291 291 290 290 290 289 289 289 289 289 289 288 288 288 288 289 289 290 291 290 290 290 290 290 290 289 289 288 288 288 288 288 288 287 286 285 284 284 282 281 280 279 278 278 278 277 276 276 275 275 274 273 272 272 272 272
300 298 294 292 292 293 294 295 295 295 295 293 292 293 293 292 292 292 292 292 293 293 293 292 292 293 292 291 292 291 291 291 291 290 290 290 289 289 289 289 289 288 288 288 288 288 289 289 290 290 290 290 290 290 289 288 288 288 287 287 287 287 287 286 285 285 284 283 282 281 280 280 279 278 278 277 277 277 277 276 275 274 274 273 273 273 273
296 294 292 292 293 294 293 294 294 294 295 294 293 292 291 290 291 291 291 290 290 291 292 292 292 292 292 292 292 292 291 291 291 290 290 290 290 290 289 289 289 289 288 289 288 288 289 290 290 289 290 290 290 289 288 287 286 286 286 286 286 285 284 283 283 282 281 280 280 280 280 279 278 278 278 278 278 278 278 277 277 276 275 274 274 274 273
299 297 294 294 296 297 296 295 295 294 293 294 294 293 292 292 292 292 293 291 289 289 290 290 291 293 292 291 291 292 291 291 291 290 290 290 290 290 289 289 288 288 288 288 288 288 289 289 288 288 289 290 289 288 287 286 285 285 285 284 284 283 282 282 281 280 279 278 278 277 277 276 276 275 275 276 276 277 277 277 277 276 275 274 273 273 273
299 297 296 295 296 297 296 296 295 294 292 293 294 294 295 294 292 292 293 294 292 291 290 288 290 292 292 291 291 291 291 291 290 290 289 289 289 289 289 288 287 287 287 287 286 287 288 288 287 288 288 288 287 287 286 285 285 284 283 282 282 281 281 281 280 279 278 277 276 274 274 273 273 272 272 273 274 275 275 275 276 275 274 273 272 272 272
295 295 295 295 295 295 295 295 295 293 292 293 293 293 294 294 292 292 292 293 293 293 291 289 288 289 290 291 291 292 291 290 289 289 289 289 288 288 288 287 286 286 286 286 286 287 287 287 286 286 286 286 286 285 285 284 283 282 282 281 281 280 280 279 278 277 276 275 274 273 272 272 271 270 270 271 272 273 273 274 274 274 273 273 272 271 271
295 294 293 293 294 294 293 292 292 291 291 292 293 292 292 292 292 292 292 292 292 292 292 291 289 288 288 289 290 290 290 290 289 289 288 288 288 287 286 286 286 286 287 287 287 287 286 285 285 285 285 285 284 284 284 283 283 282 281 280 280 280 279 278 277 276 275 274 273 272 272 271 270 270 270 270 271 272 272 273 272 272 272 272 271 271 271
294 292 291 291 292 292 291 291 291 291 290 291 292 293 292 291 291 291 291 291 291 290 291 291 290 289 288 288 288 288 289 288 288 288 287 287 286 286 286 286 287 287 287 286 286 285 285 284 284 284 283 283 283 282 282 282 281 281 280 280 279 278 277 277 276 276 275 274 273 272 271 271 270 270 270 270 271 271 272 271 271 271 271 271 271 270 270
291 291 292 293 292 291 290 291 292 292 291 290 291 292 290 289 289 289 289 289 288 288 288 289 289 289 288 287 287 287 287 287 287 286 286 286 286 286 286 286 286 286 285 285 284 284 284 284 283 282 282 281 281 281 280 280 279 279 279 278 277 277 276 275 275 275 274 273 272 271 271 270 270 270 270 270 270 270 270 270 270 270 270 270 270 270 269
291 291 293 294 293 292 291 291 291 292 291 290 290 289 288 287 289 290 291 291 289 287 286 286 286 287 287 286 286 285 285 285 285 285 285 285 285 285 285 285 284 284 284 284 284 283 283 283 282 281 281 280 280 279 279 278 278 278 277 277 276 275 274 274 273 273 272 272 271 271 270 270 269 269 268 268 268 268 268 269 269 269 269 268 269 269 268
291 290 292 293 292 292 292 291 291 291 290 289 289 288 288 289 291 292 292 292 291 289 288 287 285 285 285 285 285 285 285 285 284 284 285 284 284 284 283 283 283 283 282 282 282 282 281 281 280 279 279 279 278 278 277 276 276 275 275 275 274 272 272 271 271 271 270 270 270 269 269 268 268 267 267 267 267 267 267 267 267 267 267 267 267 267 267
290 290 290 291 291 291 291 291 291 291 290 289 290 289 289 289 290 291 290 289 289 289 289 288 286 285 284 284 284 284 284 284 284 284 284 283 283 282 282 282 281 281 280 280 280 279 279 279 278 277 277 276 276 276 275 274 274 273 272 272 271 270 269 269 269 269 269 268 268 268 267 267 267 266 266 266 266 266 266 266 265 265 265 265 265 266 266
291 290 290 290 290 290 290 290 290 290 290 289 289 289 288 288 289 290 290 289 289 289 288 287 286 286 284 283 283 283 283 283 283 283 282 281 280 280 280 279 279 279 278 278 277 277 276 276 275 275 274 274 274 273 273 272 272 271 270 269 269 268 268 268 268 268 268 267 267 267 267 266 266 266 266 265 265 265 264 264 264 264 264 264 264 265 266
292 290 290 289 289 289 289 289 288 289 289 289 289 290 289 289 290 291 290 289 289 289 288 287 287 286 285 284 284 283 282 282 282 280 279 278 277 277 277 276 276 276 275 275 274 274 274 273 273 272 272 272 272 272 271 271 270 269 268 268 267 267 267 267 267 267 267 267 267 266 266 266 265 265 265 264 264 263 263 263 263 263 263 263 263 264 265
293 292 291 291 290 290 291 291 289 289 289 289 289 289 289 289 289 290 289 288 288 287 287 287 286 285 284 284 283 282 281 280 279 277 276 275 274 274 274 274 273 273 273 272 272 271 271 271 270 270 270 270 270 270 269 268 267 267 267 266 266 266 266 266 266 266 266 266 265 265 265 265 264 264 264 263 263 263 263 262 262 262 262 262 262 263 264
293 293 292 293 293 292 292 292 291 290 289 289 288 289 288 287 287 287 286 286 286 286 285 284 283 283 283 282 282 280 279 279 279 277 274 272 272 272 271 271 271 270 270 270 269 269 269 268 268 268 268 268 268 268 267 267 266 266 266 266 265 266 265 265 265 265 265 264 264 264 264 264 263 263 263 262 262 262 262 261 261 261 261 261 261 262 263
292 292 292 292 293 292 292 292 291 290 289 288 288 288 287 285 285 284 283 283 282 281 281 280 281 281 280 280 279 278 276 277 278 276 273 271 270 269 269 269 269 268 268 267 266 266 266 266 266 266 266 267 267 267 266 266 265 265 265 265 265 265 265 264 264 264 264 263 263 263 263 263 262 262 262 261 261 261 261 261 260 260 260 261 261 261 262
285 290 292 289 287 287 288 286 283 285 288 289 288 287 283 277 275 277 277 276 276 277 277 277 278 278 276 275 275 274 273 273 273 272 271 270 268 268 268 267 267 267 266 264 264 264 264 264 265 265 265 265 266 266 265 265 265 265 265 265 265 264 264 264 263 263 263 263 262 262 262 261 261 261 261 260 260 260 260 260 260 260 260 260 260 260 260
274 279 285 282 276 274 273 270 268 271 275 276 276 276 273 268 267 269 271 272 273 274 275 275 276 274 272 271 270 270 269 269 270 270 269 267 266 266 266 266 266 267 266 264 263 263 264 264 264 265 265 265 265 265 265 265 265 265 265 264 264 263 263 263 262 262 262 261 261 261 261 260 260 260 260 260 260 259 259 259 259 259 259 259 259 259 259
267 268 270 270 267 264 263 261 261 263 267 267 265 264 264 264 265 267 269 270 271 272 272 273 273 272 270 268 267 266 266 266 267 268 267 266 266 266 266 265 265 266 265 263 262 263 263 263 264 264 264 264 264 264 264 264 264 264 264 263 263 263 262 262 261 261 261 260 260 260 260 260 260 260 259 259 259 259 259 259 259 259 259 259 259 259 259
267 265 264 263 263 261 260 260 259 260 263 265 264 261 261 263 265 266 267 267 268 269 270 271 271 269 267 265 263 261 261 263 264 264 264 264 264 264 263 263 263 264 263 262 262 263 263 263 263 263 263 263 263 263 263 263 263 263 262 262 262 262 261 261 261 260 260 260 260 259 259 259 259 259 259 259 259 259 259 258 258 258 258 258 258 258 258
265 265 263 263 263 262 260 260 259 258 259 260 261 260 261 263 264 265 264 264 265 266 267 268 268 265 263 262 260 259 259 261 262 263 263 263 264 263 262 261 261 262 262 262 262 262 262 262 262 262 262 262 262 262 262 262 262 262 261 261 261 261 260 260 260 260 260 260 259 259 259 259 259 258 258 258 258 258 258 258 258 258 258 258 258 258 258
263 263 263 263 262 261 260 259 258 258 257 258 258 259 260 262 263 262 261 261 262 264 266 267 267 264 261 261 260 259 259 261 261 262 263 263 264 265 263 261 260 261 261 261 261 262 262 262 262 262 261 262 262 262 262 261 261 261 261 261 261 260 260 260 260 260 260 260 259 259 259 258 258 258 258 258 258 258 258 257 257 257 257 257 258 258 258
261 261 262 262 261 259 259 258 258 257 257 257 257 259 260 261 262 261 260 261 262 264 264 265 265 263 261 261 260 260 260 260 261 261 262 262 263 264 263 261 260 261 261 261 261 261 261 261 261 261 261 261 261 261 261 261 261 261 261 260 260 260 260 260 260 260 260 259 259 259 258 258 258 258 258 257 257 257 257 257 257 257 257 257 257 258 258
258 259 260 259 258 258 258 258 258 257 257 256 257 258 260 261 261 261 260 261 262 262 261 261 261 261 260 260 260 259 259 260 261 261 261 261 262 263 263 261 261 261 261 261 261 261 260 260 261 261 260 261 261 261 261 261 260 260 260 260 260 260 260 260 260 260 259 259 259 258 258 258 258 258 257 257 257 257 257 257 257 257 257 257 257 257 257
257 257 258 258 257 258 258 258 258 258 257 256 257 258 260 261 261 261 261 260 260 260 260 259 259 259 260 260 260 260 260 260 261 261 261 261 261 261 261 261 261 260 260 260 260 260 260 260 260 260 260 261 261 260 260 260 260 260 260 260 260 260 260 260 260 259 259 259 259 259 258 258 258 258 258 258 258 258 258 258 258 258 258 257 257 257 258
256 256 257 257 258 258 258 258 258 257 257 256 257 258 259 260 260 260 261 261 260 260 260 260 260 260 260 260 260 260 260 260 261 261 262 263 262 261 260 260 260 260 260 260 260 260 261 261 261 261 261 260 260 260 260 260 260 260 260 260 260 260 260 260 260 260 259 259 259 259 259 259 258 258 258 258 258 258 258 258 258 258 258 258 258 258 258
255 256 256 257 257 257 257 257 257 257 258 258 258 258 258 259 259 260 261 261 261 260 261 261 261 261 261 261 261 260 260 261 261 261 262 262 262 261 260 260 260 260 260 261 261 261 261 261 261 261 260 260 260 260 260 260 260 260 260 260 260 260 260 260 260 260 260 260 260 259 259 259 259 258 258 258 258 259 259 259 259 258 258 258 258 258 258
255 255 256 256 256 256 257 258 258 259 260 260 259 258 257 258 259 260 260 260 260 260 260 261 260 260 260 260 260 260 260 261 261 261 261 261 261 261 261 261 261 261 261 261 260 260 261 261 261 261 261 261 261 261 261 260 260 260 260 260 260 260 260 260 260 260 260 260 259 259 259 259 259 259 259 259 259 259 259 259 259 259 258 258 258 258 258
255 255 256 256 256 257 258 258 258 258 258 258 258 257 257 258 259 259 259 259 260 260 260 260 260 260 260 260 260 261 261 261 261 261 261 261 261 261 261 261 261 261 261 260 261 261 261 261 261 261 261 261 261 261 261 260 260 260 260 260 260 260 260 260 260 259 259 259 259 259 259 259 259 259 259 259 259 258 258 258 258 258 258 257 257 258 258
255 256 256 257 257 258 258 259 259 258 257 257 257 257 258 259 259 259 259 259 259 259 259 260 260 260 260 261 261 261 261 261 261 261 261 260 260 260 260 260 261 261 261 261 261 261 261 261 261 261 261 261 261 260 260 260 260 260 260 260 260 260 260 260 260 259 259 259 259 259 259 259 259 259 259 258 258 258 257 258 258 258 258 257 257 257 258
256 257 257 257 257 257 258 259 259 258 257 257 258 258 259 260 260 259 259 259 259 259 259 259 259 260 260 260 260 261 261 261 261 261 260 260 260 260 260 261 261 261 261 261 261 261 261 261 261 260 260 260 260 260 260 260 260 260 260 260 260 260 260 260 259 259 259 259 259 259 259 259 258 258 258 258 257 257 257 258 258 258 258 258 258 258 258
256 256 256 255 255 256 257 258 258 258 258 258 258 259 259 260 260 259 259 259 259 259 259 259 259 259 260 260 260 260 260 260 260 260 260 260 260 260 260 260 260 260 260 260 260 260 260 260 260 260 260 260 260 260 260 260 260 260 260 260 260 260 260 260 259 259 259 259 259 259 259 258 258 258 258 257 257 257 258 258 258 259 259 259 259 259 259
257 257 256 256 256 257 257 258 258 258 258 258 258 259 259 259 259 259 259 259 259 260 259 259 259 260 260 259 260 260 260 260 260 260 260 260 260 260 260 260 260 260 260 260 260 260 260 260 260 260 260 260 260 260 260 260 260 260 260 260 260 260 260 260 259 259 259 259 259 259 259 258 258 258 258 257 257 258 258 259 259 259 259 259 259 259 259
Wind_Speed
19 11 3 6 9 9 11 14 17 19 19 20 21 22 17 10 11 12 6 13 17 13 10 11 10 9 9 8 7 7 8 9 9 9 9 10 10 9 10 11 12 13 11 12 16 19 19 20 21 21 21 21 21 22 25 30 32 31 31 32 31 29 28 28 28 28 26 24 24 26 24 21 19 16 14 12 10 8 7 5 4 3 3 3 3 5 7
19 18 10 6 7 8 8 11 15 19 22 24 24 23 20 17 20 19 8 9 13 9 9 12 9 6 4 4 5 6 7 9 9 9 9 9 10 10 12 13 13 13 12 13 17 19 19 21 22 22 21 22 23 23 25 31 33 31 31 33 32 30 29 29 28 27 26 26 27 27 25 22 20 17 15 13 12 10 9 7 6 5 5 5 5 6 7
15 16 12 8 8 9 10 11 15 17 19 20 20 20 18 16 21 22 14 11 10 5 6 6 5 3 4 4 3 5 5 6 8 7 7 9 10 11 13 13 12 12 12 13 16 18 20 22 23 22 22 22 23 24 26 31 33 31 31 33 32 31 30 29 27 27 28 29 29 27 26 23 21 19 17 15 14 13 11 10 8 8 8 7 6 7 8
12 11 11 9 4 3 9 16 20 19 15 14 17 17 15 16 19 18 15 14 9 5 6 4 4 3 3 3 4 4 4 5 7 7 9 10 11 12 13 13 13 13 13 13 15 18 20 22 23 23 23 23 24 27 30 32 33 32 31 32 31 30 30 28 27 28 31 31 29 28 27 25 22 20 19 17 16 15 13 12 11 10 9 8 7 8 10
9 6 8 7 3 1 8 16 18 18 15 14 15 15 16 18 16 13 13 12 5 7 8 5 3 4 5 6 6 6 6 6 8 10 11 10 11 11 12 13 13 13 13 13 16 18 20 22 23 24 25 27 29 32 34 34 33 33 32 32 32 31 30 28 29 30 32 32 31 30 28 26 24 22 21 20 19 17 15 14 13 12 11 10 9 10 11
5 2 6 5 5 8 9 6 6 12 17 18 17 15 15 15 12 10 9 4 5 8 9 10 9 8 8 9 9 7 5 6 8 10 10 8 8 8 9 10 10 10 12 14 16 18 20 23 25 26 29 32 33 34 34 33 33 33 33 32 32 31 30 29 30 32 33 33 32 31 29 27 26 24 24 22 20 19 18 17 16 14 12 12 11 12 12
2 4 7 6 9 10 5 3 2 5 10 17 19 17 15 14 13 14 11 5 6 9 9 8 7 7 7 6 5 4 5 6 8 9 8 7 7 8 8 9 9 10 12 14 15 18 21 24 26 26 29 30 29 29 30 31 32 32 32 31 31 31 31 31 32 34 34 34 33 32 31 29 28 27 26 24 23 21 20 19 18 15 14 13 13 13 14
1 4 8 8 5 3 1 2 1 1 2 9 13 14 15 14 13 13 14 13 9 7 7 5 2 1 3 2 2 4 5 5 6 8 8 8 8 8 8 9 10 12 14 15 16 18 21 23 24 25 27 27 26 26 28 29 30 30 30 31 32 32 32 33 34 35 35 35 35 34 33 32 31 30 28 27 25 23 22 21 19 17 15 15 15 15 14
3 5 7 3 5 4 2 3 4 5 4 9 11 10 11 11 11 11 12 13 10 6 5 5 3 3 2 2 4 6 6 4 5 6 6 6 7 7 8 9 10 12 14 16 17 18 19 21 23 24 24 24 25 25 25 27 28 29 30 32 34 33 33 34 36 37 37 37 37 36 35 34 33 32 31 29 27 25 24 23 21 18 17 16 16 16 16
4 4 5 3 5 7 4 4 5 3 1 5 8 6 5 5 8 10 10 11 11 6 5 5 5 4 3 5 5 6 7 6 5 4 3 5 6 8 10 10 10 11 14 15 16 18 18 18 19 20 21 22 23 23 24 26 27 28 30 33 34 34 35 37 39 40 40 39 38 37 37 37 36 34 32 30 28 27 25 24 22 20 18 18 18 17 16
4 5 5 6 6 4 1 3 3 3 1 5 8 1 4 3 6 9 11 11 10 7 7 7 6 5 5 7 4 5 7 7 6 5 4 5 6 7 8 9 10 11 13 13 14 15 16 17 17 18 21 22 22 23 24 25 26 28 31 35 35 36 38 39 40 40 40 39 39 39 39 39 37 35 33 31 29 27 26 24 22 21 19 19 19 18 17
5 7 5 4 3 1 2 4 4 2 1 5 8 1 4 4 5 6 9 9 7 8 8 7 6 7 6 4 1 4 5 5 5 6 6 6 7 7 7 8 9 10 13 14 15 16 16 17 17 19 21 22 22 23 24 25 27 30 34 36 37 38 40 39 39 39 39 39 39 40 40 39 37 34 32 31 29 28 26 25 23 21 21 20 20 19 17
6 8 6 3 2 1 2 4 4 2 1 3 4 4 1 3 4 2 4 6 6 7 7 6 5 5 2 2 3 4 5 5 4 5 7 8 8 8 8 9 10 12 14 15 16 16 16 16 18 20 21 22 22 23 23 26 29 32 34 35 36 38 38 37 38 38 39 39 40 40 39 37 35 33 32 31 30 28 26 25 23 22 21 21 20 19 18
4 5 4 2 2 1 4 4 2 1 2 2 4 2 2 2 4 4 4 4 5 6 7 7 5 2 4 4 3 3 4 5 5 6 8 8 8 8 8 10 12 13 13 12 13 14 15 16 18 19 21 22 23 23 24 27 29 30 31 33 34 35 35 35 36 37 38 39 38 38 37 35 34 33 32 31 30 28 27 25 24 23 21 20 20 20 19
2 2 4 3 2 2 8 8 3 1 2 2 3 3 3 2 3 5 4 4 5 7 8 7 4 5 5 3 3 3 3 4 6 6 6 6 7 8 9 10 12 13 13 13 13 14 16 18 18 20 22 23 23 23 25 26 26 26 29 31 31 32 33 33 35 35 36 37 37 36 36 35 34 34 32 31 30 29 28 26 24 23 21 20 20 20 19
3 3 5 2 1 3 8 6 3 3 2 2 4 5 3 1 2 4 3 3 5 7 7 5 4 5 4 3 3 3 3 4 4 4 5 5 6 8 9 10 13 14 13 14 15 15 17 19 20 21 23 24 24 25 26 25 24 25 28 28 29 30 31 32 33 34 34 35 35 35 35 34 34 34 33 32 31 30 28 26 24 23 21 20 20 19 18
2 2 2 1 2 3 4 1 2 3 3 2 2 5 4 1 2 3 3 4 6 5 4 4 5 4 4 3 3 3 3 3 3 3 4 5 6 7 8 10 13 16 15 15 15 16 17 19 20 22 24 25 26 26 25 23 24 26 27 28 28 29 30 31 32 33 33 33 34 34 35 35 35 35 34 33 32 31 29 27 25 24 21 20 19 19 18
1 1 2 2 1 3 3 3 3 3 3 2 1 4 3 2 2 3 3 2 4 5 4 4 4 4 5 5 4 4 4 4 4 3 3 5 6 8 9 10 13 16 15 13 13 14 16 18 20 22 24 26 27 28 26 25 26 27 27 28 29 30 31 32 32 33 33 33 34 34 35 35 35 35 35 35 33 31 30 28 27 26 23 21 20 20 20
2 1 2 3 2 2 3 2 2 2 2 1 1 2 2 1 2 3 1 2 4 5 5 5 5 5 6 6 5 4 3 4 4 4 4 6 8 11 13 13 13 14 14 13 14 15 17 19 21 23 25 28 30 29 27 25 26 27 27 28 29 30 31 32 33 33 34 34 35 35 36 36 36 35 35 35 34 32 31 30 29 27 25 23 22 21 21
1 1 1 3 2 0 1 1 0 1 2 1 1 2 2 2 1 1 2 3 4 4 4 5 5 4 6 7 5 5 4 4 4 5 6 8 10 12 14 14 14 13 14 15 17 18 20 23 24 25 27 29 31 32 29 27 26 26 28 29 30 31 32 32 33 34 35 35 36 36 37 38 38 38 38 37 36 36 35 33 30 28 26 25 24 23 21
1 0 1 1 1 1 1 2 3 2 1 2 2 2 2 2 2 2 2 2 2 2 3 3 3 3 4 5 5 5 5 4 4 6 8 11 12 14 14 15 16 16 17 18 19 21 24 25 24 26 29 31 32 33 33 30 28 27 28 30 30 31 30 30 31 33 34 35 36 37 38 39 39 40 40 39 39 38 36 33 30 28 26 25 24 23 21
3 3 5 4 2 2 3 5 6 5 3 2 2 1 1 1 2 3 2 1 2 1 0 1 3 3 4 4 4 4 4 4 5 8 10 12 13 14 14 14 16 17 19 19 19 22 24 23 22 25 28 30 31 32 32 32 30 29 29 29 29 30 30 30 32 32 33 34 36 36 36 37 38 38 37 37 37 36 34 31 29 26 25 24 23 22 21
2 3 7 6 2 2 1 4 6 7 6 4 4 4 3 3 3 3 3 3 2 1 2 2 3 4 4 4 5 5 4 6 8 9 11 12 13 15 16 15 16 17 19 19 19 21 24 23 22 23 26 27 27 28 28 29 30 30 29 27 28 30 31 32 32 32 33 34 35 34 34 33 34 34 34 33 34 33 32 30 27 25 24 24 23 22 22
1 2 6 6 3 2 2 3 4 6 7 7 6 5 4 4 4 4 4 4 3 3 3 4 6 6 5 5 6 5 5 7 9 11 12 13 13 13 13 14 15 16 17 17 19 22 24 22 22 23 25 25 24 25 25 26 27 28 28 28 30 31 31 31 30 29 31 31 31 32 32 30 29 30 30 29 29 29 29 28 26 24 23 23 22 22 21
3 2 4 4 4 3 1 1 2 3 4 5 5 4 4 5 5 5 5 4 3 4 3 4 6 9 8 7 6 6 6 7 9 10 11 11 11 10 10 12 14 15 16 17 19 20 20 19 20 21 22 22 22 22 23 23 24 25 27 29 31 31 29 27 27 28 29 29 29 30 31 30 29 28 27 27 27 24 22 22 22 22 22 22 21 20 19
4 4 5 4 2 2 2 1 1 2 3 4 3 2 3 4 4 5 5 4 4 5 5 4 5 8 10 10 9 9 8 8 9 8 8 9 10 12 14 16 17 17 17 17 17 17 18 18 18 19 19 19 19 19 20 21 21 23 25 27 29 29 27 25 25 27 28 29 29 29 30 30 30 28 28 28 26 21 18 17 18 19 21 22 21 21 20
4 6 7 4 1 2 3 3 3 3 4 5 3 1 3 4 4 3 3 3 4 6 8 8 7 7 8 10 11 11 10 9 7 7 8 10 13 15 16 16 16 16 16 16 17 17 17 18 18 18 18 18 18 17 18 18 18 20 22 23 25 26 25 24 24 25 26 27 27 28 28 29 29 28 27 26 24 21 19 17 16 17 17 19 19 20 20
4 5 5 4 3 4 5 4 2 3 4 3 3 2 4 4 2 1 2 3 4 5 7 9 8 7 7 8 9 9 8 8 7 8 10 13 14 14 14 13 14 14 15 15 16 16 17 17 17 17 17 17 17 16 16 15 16 17 19 20 22 23 23 23 23 23 24 24 24 24 25 25 25 25 24 22 20 19 19 18 18 17 17 17 17 18 19
4 4 4 3 2 3 2 2 2 2 3 2 2 2 3 2 1 3 4 5 4 4 5 6 9 10 9 8 8 8 7 7 9 10 11 11 10 10 10 11 12 13 13 14 15 15 16 16 16 15 15 16 15 14 13 13 13 14 16 17 19 19 19 20 20 20 20 20 20 20 21 21 20 20 19 18 17 16 16 17 17 18 19 19 19 19 19
2 3 3 3 1 4 2 1 2 3 4 3 2 2 3 3 3 5 6 6 5 5 6 6 7 8 9 9 10 10 9 8 7 7 7 7 7 8 9 9 9 9 10 11 12 13 13 13 12 12 13 13 12 11 11 10 10 11 12 14 15 15 15 15 16 16 16 16 16 16 16 16 16 16 15 15 15 15 15 16 16 17 18 19 20 20 20
3 3 3 2 1 1 2 4 3 3 4 4 4 3 3 4 6 7 7 6 5 6 7 6 4 5 8 10 11 10 10 9 8 6 5 6 6 7 8 8 7 6 5 6 7 8 9 9 9 9 9 9 9 8 8 8 8 9 10 11 12 12 12 12 12 13 13 13 13 13 13 12 13 13 13 13 13 14 14 15 15 16 17 18 19 20 19
5 3 2 2 1 2 4 4 3 3 4 5 6 6 6 7 8 8 7 6 5 5 5 4 4 6 9 9 9 9 9 9 8 7 6 6 6 6 6 6 7 6 5 5 5 5 5 5 5 5 6 6 5 5 5 6 6 7 8 9 9 10 10 10 9 10 11 11 11 11 11 12 12 12 12 12 12 12 13 14 15 17 17 18 20 20 20
7 4 4 5 4 3 5 6 5 5 6 6 6 6 6 5 5 6 5 4 4 4 4 4 5 7 8 7 7 8 7 6 6 6 6 6 5 5 4 4 5 4 4 3 3 2 2 2 2 2 2 2 2 2 3 4 4 5 6 7 7 8 8 8 8 8 8 8 9 10 10 10 10 10 10 11 12 13 13 14 15 17 18 19 21 21 20
9 7 5 6 6 6 7 7 5 5 5 4 4 4 4 4 4 5 4 4 4 3 4 5 6 6 6 6 7 7 7 5 3 3 6 7 6 4 4 4 4 3 3 3 2 2 2 3 3 3 2 3 3 3 4 5 5 5 6 6 6 6 6 6 6 5 5 5 6 7 7 8 9 10 10 11 11 12 13 14 15 16 17 19 20 20 20
3 2 2 2 1 1 0 1 2 2 2 3 3 3 3 3 4 3 3 3 2 3 4 6 5 5 4 4 5 5 6 4 1 1 6 8 7 6 6 6 6 6 6 5 5 5 5 5 5 5 4 4 4 4 4 4 4 4 4 4 4 4 4 5 5 5 4 4 4 3 4 5 6 7 8 9 10 11 13 14 15 16 17 18 18 19 19
4 2 4 4 4 4 5 4 3 2 2 2 1 1 1 2 3 2 1 2 2 3 4 4 3 2 1 2 2 3 3 2 1 3 6 8 8 8 8 7 8 8 8 7 6 5 6 5 5 5 4 4 3 3 2 2 2 2 3 3 3 3 3 4 4 4 5 5 4 4 4 5 6 8 9 10 11 12 13 14 14 15 16 17 17 17 18
7 5 4 3 4 5 5 5 4 3 4 5 4 3 3 3 3 2 1 1 1 2 2 2 2 3 4 5 4 4 3 3 3 5 8 9 10 10 9 9 8 7 7 6 4 4 5 4 4 4 3 3 3 2 2 2 2 2 2 2 2 3 3 3 3 4 4 4 5 5 5 6 7 7 8 9 10 10 11 12 13 14 15 16 16 17 17
6 7 6 5 5 5 6 6 6 6 6 6 6 4 4 4 4 5 4 3 2 2 1 3 5 7 8 8 7 6 6 5 5 7 9 10 10 10 9 7 5 4 5 4 4 5 5 4 4 4 3 3 3 2 2 1 1 1 1 1 1 2 2 2 2 2 2 3 4 4 5 5 5 6 7 8 9 9 10 11 13 14 15 16 16 17 18
6 6 6 6 6 6 6 8 10 10 8 6 5 4 4 5 6 6 5 5 4 4 5 7 8 9 10 10 10 9 8 7 8 9 10 11 11 10 9 7 5 5 6 6 6 5 4 3 3 3 2 2 1 1 1 1 1 0 1 1 1 1 1 1 1 1 2 3 3 4 5 6 6 7 8 9 10 11 12 13 15 16 17 18 18 19 19
4 4 4 4 5 5 5 6 9 11 10 9 6 5 5 5 6 7 8 7 6 5 6 8 9 9 10 11 11 10 9 9 10 11 12 12 11 11 9 7 5 7 8 6 4 3 3 2 2 2 2 2 1 1 1 1 1 1 1 1 1 1 1 0 0 1 2 3 4 5 5 6 7 8 9 10 11 12 13 14 15 16 17 18 18 19 19
3 3 3 3 4 5 5 5 6 9 11 11 9 7 5 5 6 8 8 8 7 7 6 7 8 10 11 13 13 13 12 11 11 11 11 9 7 6 5 4 4 6 6 4 3 3 3 2 2 2 2 2 2 2 2 2 2 3 3 2 2 2 1 1 1 2 3 4 5 6 6 6 6 8 9 9 10 12 13 14 14 15 16 17 18 18 19
4 3 3 4 4 5 5 6 6 8 10 11 11 9 7 7 8 9 9 9 9 9 9 9 10 13 15 16 16 16 13 11 11 10 8 6 4 4 4 4 4 5 5 4 3 4 4 3 3 3 3 3 4 4 4 4 3 3 3 2 1 1 1 2 3 4 5 5 6 6 6 7 7 8 9 9 10 11 12 13 14 15 16 17 17 18 19
5 3 3 4 4 4 7 9 9 8 9 11 11 11 9 9 10 11 11 11 12 13 14 15 15 16 16 16 16 14 12 10 10 10 9 8 7 5 5 6 6 5 5 4 4 4 4 4 4 4 4 4 4 4 3 3 2 2 1 2 2 3 4 5 5 6 6 6 7 7 8 8 9 9 10 11 11 12 12 13 14 15 16 17 17 18 19
5 4 3 3 4 5 7 8 8 8 8 9 11 11 11 12 12 12 13 14 14 15 16 16 15 14 13 12 11 10 8 7 7 7 7 7 7 6 5 7 6 5 4 4 3 3 3 3 3 3 3 2 2 2 1 1 2 3 4 5 5 6 6 7 7 8 8 8 9 9 10 10 11 11 12 13 13 14 14 15 16 17 17 18 18 18 18
6 6 5 4 4 5 5 6 7 9 11 13 15 15 14 14 14 14 14 15 15 14 14 14 13 11 10 10 10 9 8 6 5 4 3 3 3 3 4 6 5 4 4 3 2 2 2 1 1 1 0 1 1 2 3 4 5 6 7 7 8 8 8 9 9 10 10 11 11 12 12 12 12 12 13 14 15 16 16 17 18 19 19 19 19 19 19
6 7 6 7 7 8 8 9 11 13 15 17 16 14 13 14 15 14 14 15 15 14 13 12 11 11 11 11 11 10 8 7 6 4 2 2 3 4 5 5 4 3 3 2 1 0 1 1 2 2 3 4 4 5 6 6 7 7 8 9 9 9 10 10 11 11 12 12 13 13 13 13 13 14 15 16 17 18 19 19 20 21 21 21 20 20 20
6 7 8 9 9 8 9 10 10 10 11 11 9 8 10 13 14 14 14 14 14 13 12 11 11 10 9 9 9 7 6 6 5 4 4 4 5 5 4 3 2 1 1 1 2 2 3 4 4 5 5 6 6 7 7 8 8 9 9 10 11 11 12 12 13 13 13 14 14 14 15 15 16 17 17 18 19 20 20 20 21 21 21 20 20 20 21
7 7 8 8 8 7 8 9 9 8 8 8 7 8 10 12 14 14 13 12 12 12 11 10 9 8 7 6 6 6 5 4 3 2 2 3 4 3 2 1 1 1 2 2 3 4 4 5 5 6 6 7 7 8 9 9 10 11 12 12 13 13 14 14 14 14 14 15 15 16 17 18 18 19 19 20 21 21 21 20 21 21 20 20 20 20 21
7 7 7 6 6 6 6 6 6 6 6 7 8 9 10 10 10 10 9 9 9 10 9 8 8 7 6 5 5 4 3 2 2 2 3 2 1 1 1 1 2 2 3 4 4 5 6 6 7 7 8 9 9 10 11 12 12 13 13 14 15 15 16 16 16 16 16 17 18 18 19 19 20 20 20 20 21 21 21 20 21 21 21 20 21 21 22
6 6 6 6 6 6 5 4 5 5 5 5 6 7 7 6 5 5 5 6 7 6 6 6 6 5 5 4 3 2 1 2 2 2 2 1 2 2 3 4 4 4 5 6 6 7 8 8 9 9 10 11 11 12 13 13 14 15 15 16 16 17 17 18 18 18 18 18 19 19 19 20 20 20 20 20 21 21 21 21 22 22 21 21 22 22 22
6 5 5 6 8 8 8 8 7 6 6 5 5 4 4 4 4 4 4 4 4 3 3 4 3 3 3 3 2 1 0 0 0 1 2 3 4 4 5 6 6 7 7 8 8 9 10 10 11 11 11 11 12 13 13 13 14 15 16 16 17 17 18 18 18 18 18 18 18 19 19 19 19 20 21 21 21 21 21 22 22 22 22 21 21 21 21
9 9 9 9 10 11 11 10 9 7 6 5 4 4 4 4 4 4 4 3 3 2 2 2 1 0 1 1 1 1 1 2 3 3 4 5 6 7 7 8 8 9 9 10 10 10 11 11 11 11 11 11 12 12 13 13 14 15 15 15 16 17 17 18 18 18 18 18 19 19 20 20 20 22 23 22 22 21 21 21 21 21 21 20 20 20 20
Wind_Direction
244 240 195 173 193 210 206 197 195 195 197 198 205 220 222 196 218 246 186 179 219 223 187 192 197 192 195 183 156 141 143 151 157 162 171 183 187 180 181 188 188 186 181 177 183 184 180 178 178 179 180 180 181 182 187 192 194 192 191 190 188 188 189 190 191 191 189 189 191 193 194 195 194 196 200 204 209 213 217 225 235 251 266 276 296 315 325
245 239 229 198 200 226 225 214 208 199 198 200 204 216 220 212 227 240 222 202 227 223 190 186 182 186 177 124 108 119 136 148 155 165 177 188 193 192 195 196 192 191 187 180 183 184 179 179 179 179 179 180 182 183 188 196 197 194 194 194 192 193 194 194 194 193 193 195 197 198 199 200 200 202 207 211 215 221 227 235 244 254 261 267 281 303 317
248 238 230 212 205 227 238 237 228 214 205 202 206 217 218 216 232 240 242 253 252 218 176 162 131 107 92 94 132 160 162 152 149 167 188 196 201 200 200 199 193 192 191 181 180 180 179 180 180 180 180 179 182 186 192 198 199 197 197 197 196 196 197 196 196 196 199 200 201 203 203 204 205 208 213 216 220 226 231 238 247 251 256 263 278 296 307
247 231 212 206 194 230 254 251 239 224 208 199 206 217 214 211 226 232 235 249 245 165 136 105 78 105 139 178 202 197 190 160 156 186 202 203 206 200 196 196 192 192 191 182 180 181 180 180 180 182 182 179 184 192 198 202 201 199 200 199 199 199 199 199 199 201 204 205 205 207 207 209 211 214 218 221 223 229 234 239 246 250 255 263 276 290 296
254 235 185 181 135 103 252 250 237 220 207 205 212 218 215 212 217 218 223 236 216 139 145 161 165 174 193 220 226 218 204 176 178 202 207 205 203 193 190 192 191 192 190 184 183 182 181 182 182 185 188 190 197 202 204 205 203 201 202 202 201 202 201 201 202 205 207 208 208 210 211 213 216 218 221 223 226 231 235 239 244 247 253 261 273 283 288
250 189 129 142 182 215 237 256 233 209 200 200 210 219 217 210 211 222 234 229 145 151 173 182 188 201 209 219 226 220 199 180 192 206 207 198 186 178 180 183 182 185 184 184 187 187 189 193 195 199 203 205 207 208 206 205 204 203 203 203 203 203 203 204 206 208 210 210 212 214 215 217 219 222 224 225 227 232 236 239 242 245 252 262 270 277 281
235 134 134 179 216 227 250 348 340 222 200 198 211 225 225 213 213 224 236 227 167 170 183 187 197 212 209 212 222 203 179 182 190 196 198 186 172 169 172 174 177 179 178 180 185 189 196 203 204 204 206 206 207 207 205 204 203 203 203 202 203 205 205 207 210 211 212 213 214 217 218 220 222 224 225 227 228 232 236 239 240 244 252 261 267 271 275
137 152 181 208 236 255 313 336 303 84 153 191 209 233 237 222 211 214 225 232 216 179 167 170 172 181 164 176 218 185 181 191 186 187 191 183 176 173 169 170 172 173 175 180 185 191 197 200 200 201 202 203 203 205 206 205 204 204 203 202 205 207 207 209 212 214 215 215 216 219 221 222 224 225 227 228 230 233 236 238 239 243 252 260 265 268 270
172 192 207 247 314 290 226 204 189 161 164 184 191 221 237 218 200 199 213 230 228 187 145 139 121 110 132 232 234 194 186 196 189 188 185 168 160 156 155 163 167 172 181 187 190 194 195 195 198 199 200 201 202 203 205 205 204 204 204 206 209 209 210 213 216 218 219 218 219 220 222 224 225 227 229 229 231 233 235 237 239 243 251 259 263 265 267
177 207 221 242 270 257 218 184 180 155 141 170 168 198 234 200 182 185 196 222 225 192 139 133 133 134 180 238 231 186 176 184 183 176 140 122 134 142 146 152 157 169 183 188 191 194 191 191 195 196 196 197 198 199 200 201 202 203 206 210 212 211 213 217 219 221 221 221 220 221 224 226 228 230 230 230 232 235 236 237 240 245 252 257 259 262 266
173 200 217 214 227 244 184 154 134 74 52 114 109 99 263 194 170 182 194 214 217 181 156 155 150 159 207 234 224 161 163 174 174 169 139 107 112 129 143 152 159 171 180 181 183 186 186 186 189 190 193 193 192 195 199 200 201 203 208 213 214 215 219 221 222 223 223 223 223 224 226 230 231 231 232 232 233 235 235 236 240 245 251 255 258 261 265
192 199 215 230 239 267 108 127 104 52 330 102 104 153 253 186 175 191 194 201 193 165 158 157 164 190 215 228 188 114 129 143 152 156 149 134 126 128 141 155 164 171 174 173 176 181 184 186 188 190 192 191 192 197 200 200 202 207 214 218 220 221 223 223 224 225 225 225 226 227 229 231 232 232 232 232 233 234 234 235 239 245 250 253 258 261 264
208 206 216 249 257 185 136 131 126 130 67 97 161 215 221 143 171 179 160 166 158 149 154 164 187 208 195 101 97 98 107 123 133 126 123 132 138 142 155 165 166 169 173 175 179 183 185 188 192 194 193 191 194 198 199 201 208 215 221 224 224 224 225 224 225 227 227 227 228 229 231 232 232 231 231 232 233 232 233 235 239 244 248 252 257 262 265
207 211 220 255 272 164 118 99 89 142 148 166 199 212 46 104 158 140 131 149 146 152 172 189 192 146 91 100 121 123 123 126 126 117 115 122 131 142 158 170 173 171 172 175 180 183 186 192 197 198 194 193 195 196 199 206 215 221 224 225 226 226 226 226 227 228 228 229 229 230 231 230 229 230 229 230 231 231 232 235 239 243 247 251 257 262 266
179 204 209 221 273 162 137 122 101 229 219 169 145 118 54 52 123 134 146 160 163 173 187 193 165 111 111 124 110 100 98 93 104 124 133 135 142 149 158 171 178 176 175 179 184 187 192 197 199 198 196 196 196 198 204 214 220 223 225 227 229 228 227 227 228 229 230 230 229 229 230 229 228 228 227 227 227 228 230 234 237 241 245 249 255 261 266
174 202 207 211 340 181 164 143 134 183 184 111 125 130 107 65 135 153 166 179 186 192 192 178 139 119 129 137 111 104 101 91 104 131 141 141 146 153 163 176 181 180 180 185 190 193 199 202 202 201 200 199 199 204 213 220 223 225 228 229 228 227 227 228 229 230 230 230 230 229 229 228 226 224 224 225 225 227 229 231 235 239 243 247 251 256 261
166 182 189 17 16 168 165 37 15 122 107 53 97 113 110 138 172 166 184 195 191 190 179 143 133 144 158 150 134 139 140 135 141 144 145 154 156 155 164 178 186 188 189 191 193 198 205 208 207 207 208 206 205 213 221 224 225 228 230 228 226 227 228 229 229 230 229 228 228 228 227 225 223 222 222 222 223 225 228 229 232 235 237 240 244 248 253
142 142 129 96 98 147 121 20 356 76 81 15 51 100 116 158 166 173 202 198 166 164 160 149 155 171 167 153 153 157 148 151 155 143 148 168 169 168 173 183 194 198 198 199 200 204 213 218 216 215 215 213 215 223 229 228 227 230 230 228 228 228 229 229 229 228 227 226 225 225 224 223 222 221 222 222 223 224 226 227 230 232 232 234 238 243 248
168 172 109 79 73 136 106 48 8 57 70 15 35 89 96 85 146 184 209 65 115 144 158 169 178 171 159 161 169 160 151 163 166 164 175 184 187 193 197 199 203 204 204 209 214 216 222 228 228 226 225 224 226 230 232 230 231 232 230 229 230 230 230 230 228 227 226 224 223 221 220 220 219 219 221 223 223 224 225 226 228 229 230 231 234 239 245
146 146 77 44 23 37 74 37 291 108 113 153 112 63 55 41 65 133 83 73 112 147 172 186 180 155 153 166 171 163 169 182 178 179 191 194 199 208 211 210 210 210 212 218 223 226 231 234 235 236 235 235 235 234 232 232 234 234 233 233 232 232 231 229 227 227 226 223 221 220 220 219 219 219 221 223 224 225 227 229 229 230 232 234 236 240 245
117 120 175 105 88 147 160 211 240 252 204 151 121 83 72 54 71 100 88 67 100 134 168 178 164 152 160 168 171 172 176 178 184 199 207 208 211 214 214 214 215 215 219 224 226 231 237 239 239 240 242 243 243 240 237 236 235 235 236 236 234 233 232 229 228 227 225 222 221 221 221 221 221 222 224 225 227 229 231 232 234 237 239 241 245 248 248
219 193 168 166 146 127 169 199 214 219 205 158 145 163 184 184 157 147 142 115 89 78 86 145 160 188 194 178 172 177 183 189 199 211 218 221 223 223 219 219 220 221 225 229 231 236 242 243 241 242 246 248 248 246 243 240 238 238 238 236 235 233 232 230 229 227 225 223 222 222 222 223 223 224 226 228 230 232 234 236 238 241 243 247 251 252 252
248 160 159 164 129 69 186 201 190 186 181 171 181 200 202 197 190 175 168 165 156 187 229 195 185 202 212 202 195 199 212 213 211 218 224 226 227 227 222 219 222 226 230 233 236 243 248 249 248 249 251 253 253 252 250 247 244 242 239 237 236 235 234 232 231 228 226 226 224 222 223 226 226 226 228 230 233 234 236 237 239 241 244 248 251 253 255
50 132 163 163 132 103 195 192 158 155 167 178 196 209 199 189 188 185 191 202 197 185 193 201 205 212 222 222 212 208 216 221 221 227 234 234 233 232 227 221 221 226 232 238 245 252 255 256 256 256 257 258 258 258 258 255 251 247 242 239 239 239 238 236 234 230 229 228 227 224 224 226 228 229 230 233 236 238 238 240 242 243 245 248 251 252 253
115 148 148 139 128 117 118 108 99 122 158 171 191 208 194 188 189 186 190 211 218 209 210 211 211 214 221 229 228 224 230 237 238 240 244 245 243 241 238 235 235 239 245 250 255 260 263 264 264 263 263 263 263 262 262 259 255 251 246 242 241 242 242 240 236 233 231 230 229 228 227 227 228 229 228 230 234 237 240 242 244 245 245 246 248 248 247
113 119 96 82 81 80 84 110 135 169 170 172 195 211 183 176 182 183 188 201 210 213 220 221 217 219 223 228 235 239 242 249 252 249 245 243 242 242 245 249 251 253 257 260 263 266 269 271 272 271 269 268 267 266 265 262 258 253 249 246 244 243 242 240 238 235 233 232 231 230 230 229 230 230 230 230 230 231 231 232 236 240 242 243 244 245 245
113 124 113 103 117 210 207 204 190 157 152 170 202 208 98 108 133 157 187 217 222 224 228 229 232 234 233 233 236 241 245 247 245 237 230 232 238 245 250 256 259 261 264 268 270 272 274 275 273 272 271 270 269 268 265 263 259 255 251 248 246 244 241 240 238 237 236 234 234 233 232 232 231 230 231 232 231 230 229 229 232 239 245 248 247 245 245
159 157 154 165 186 203 212 208 165 105 116 148 188 149 93 90 104 162 253 250 241 239 241 237 232 231 233 232 228 231 238 239 229 226 231 238 245 251 256 260 262 265 267 270 271 272 272 271 270 271 271 271 271 270 269 266 261 256 251 248 245 243 241 238 236 236 236 235 234 234 233 232 231 230 230 231 232 234 236 238 240 244 249 253 253 249 247
180 173 195 209 145 105 109 119 117 129 131 121 108 113 120 139 222 256 257 254 247 249 252 241 227 225 230 230 223 221 227 231 231 234 240 245 251 255 256 257 258 260 263 263 264 265 266 267 269 270 270 271 273 272 270 266 259 253 250 245 241 240 239 237 233 231 232 233 233 232 231 230 228 228 229 231 233 237 241 245 248 251 253 256 258 259 258
152 149 201 236 97 87 101 172 189 178 167 157 147 143 156 188 229 248 250 247 245 248 250 241 227 224 227 230 230 231 235 240 248 251 248 245 246 245 245 247 249 253 256 257 260 263 264 265 267 266 268 271 272 270 267 261 252 246 242 238 234 232 234 235 232 228 229 230 229 229 228 227 227 228 230 234 237 240 244 248 251 255 257 259 260 262 263
171 182 210 244 93 125 215 230 215 172 151 153 172 181 170 188 223 244 248 240 236 244 249 250 245 238 238 241 245 247 249 254 260 260 249 240 239 239 238 235 232 235 245 252 258 262 261 260 262 264 269 273 273 268 263 254 245 237 232 228 225 225 228 232 230 227 227 228 228 227 226 226 228 230 232 236 240 244 248 252 255 256 258 259 260 261 262
161 186 219 233 211 227 241 238 222 203 181 166 181 202 204 203 219 236 244 242 246 257 262 261 260 258 257 259 260 259 255 254 251 243 236 234 234 237 237 230 227 233 242 250 258 264 261 257 261 267 272 275 272 263 253 242 234 227 222 220 220 221 224 224 223 224 226 227 227 228 226 226 230 233 235 239 244 248 252 256 257 258 258 258 259 262 263
154 182 216 214 205 228 247 242 231 223 212 195 199 219 225 222 228 238 247 256 269 280 280 271 270 271 269 264 256 246 238 234 231 224 220 219 218 222 225 221 219 223 227 233 247 253 245 239 243 247 254 248 226 212 205 196 195 201 205 207 208 210 210 208 208 216 224 225 226 229 231 232 236 241 244 249 253 255 256 256 257 258 259 260 261 264 266
180 195 208 201 192 208 234 235 224 222 222 216 217 229 233 238 246 252 264 280 289 291 290 290 290 288 276 257 242 225 208 203 213 211 204 202 200 195 191 184 178 175 168 159 157 153 149 147 143 136 127 122 125 133 141 153 167 182 190 194 199 201 198 195 198 210 225 233 237 243 246 246 248 251 254 257 258 258 257 257 257 259 261 262 265 268 271
197 172 105 89 138 172 210 153 154 176 194 196 201 212 226 249 268 275 287 302 307 302 303 302 296 288 268 241 227 210 201 209 249 186 181 184 178 167 160 153 146 139 127 117 119 122 121 123 125 119 113 112 115 121 136 153 168 181 189 198 207 211 208 208 211 217 225 234 242 249 247 247 252 255 256 258 259 260 261 261 261 262 264 265 268 271 275
8 58 91 63 43 51 62 65 62 60 83 119 146 115 57 8 349 341 331 327 315 302 300 294 274 254 190 154 163 173 186 206 209 160 165 167 161 156 151 145 142 133 114 98 98 113 120 122 119 113 111 110 112 118 137 157 170 184 198 207 215 219 221 223 225 230 232 234 237 240 243 249 256 259 261 263 264 263 264 263 263 265 267 268 271 274 276
12 33 74 65 50 60 65 59 55 67 82 83 70 56 57 51 51 69 83 353 312 299 295 262 197 157 128 120 123 123 124 134 151 157 158 156 154 151 144 137 136 128 105 89 97 117 120 116 114 117 115 108 107 118 136 152 167 182 198 208 214 219 227 232 236 243 248 249 249 249 253 259 264 265 266 268 267 264 262 264 266 268 270 272 274 275 275
35 41 54 59 65 74 73 69 75 87 97 94 81 72 79 91 95 97 93 81 78 89 118 157 157 145 132 121 110 101 103 115 133 143 147 150 151 144 131 122 120 107 95 103 123 123 112 106 108 108 103 98 99 106 107 111 135 158 171 192 205 208 215 223 232 243 253 259 263 264 263 264 262 259 259 263 265 264 264 266 270 273 274 275 275 275 274
50 47 49 51 60 69 73 71 68 68 76 87 86 74 78 95 107 103 90 82 86 105 130 138 135 130 126 119 106 95 98 111 124 133 138 141 140 128 111 100 106 116 122 131 132 120 108 106 107 99 91 91 89 67 62 84 108 118 131 158 165 151 177 209 229 252 258 267 276 277 272 268 267 266 267 269 271 270 270 273 276 279 279 278 276 275 274
46 43 42 48 56 58 60 64 63 62 66 74 76 70 72 91 106 101 87 78 80 102 128 135 129 121 120 118 109 102 104 112 122 129 131 132 130 119 100 88 102 125 132 135 129 115 107 101 91 82 71 68 60 36 37 75 97 103 105 108 104 97 93 28 324 288 288 293 292 286 281 277 274 274 275 276 276 275 275 276 278 279 280 280 279 277 275
46 47 58 75 78 70 69 77 76 70 66 65 65 67 72 89 101 96 85 79 84 97 116 129 128 123 123 122 118 114 113 116 120 124 125 124 121 108 90 85 110 128 129 124 111 103 95 78 72 74 67 61 62 66 75 86 94 99 96 91 89 89 66 9 335 306 295 290 286 282 278 272 269 273 276 276 276 277 277 277 277 276 277 278 278 277 275
18 42 82 90 79 71 78 86 85 75 64 60 61 65 71 83 94 93 88 88 94 96 98 108 119 122 123 122 119 113 110 111 116 115 108 98 87 83 93 119 136 133 124 117 106 97 88 76 74 78 75 74 79 87 90 90 90 86 82 73 55 25 333 309 298 292 284 278 273 271 269 264 265 271 273 273 275 278 278 278 277 278 279 279 279 278 277
357 12 77 89 89 94 98 99 98 90 73 63 64 70 77 84 91 93 91 91 94 97 99 103 110 114 116 117 113 105 99 102 106 100 89 78 73 80 113 137 142 135 127 123 115 105 97 94 91 89 86 88 91 91 88 84 73 50 19 344 326 317 306 295 290 284 278 275 274 275 275 275 275 276 275 276 278 279 279 278 280 282 285 285 284 282 282
358 2 28 69 98 110 109 104 101 97 86 76 76 81 85 86 89 93 95 94 96 100 103 105 107 109 111 110 104 97 96 99 98 93 88 81 73 79 113 136 139 135 130 126 119 113 110 107 105 104 101 97 96 89 58 9 334 322 316 311 306 301 295 291 288 284 280 280 282 282 281 280 279 278 279 279 279 281 283 285 286 288 288 287 286 286 286
10 18 25 45 73 84 86 87 93 100 101 93 85 82 83 87 89 94 98 100 99 100 104 106 106 108 110 109 106 108 115 115 105 99 104 96 83 102 134 140 137 134 131 122 109 108 111 107 111 131 183 296 296 295 301 305 306 305 304 302 299 295 292 289 288 287 288 289 289 287 285 283 282 281 283 283 284 287 290 291 289 289 288 286 285 286 288
20 36 50 65 74 77 84 95 103 106 104 95 83 73 76 87 92 94 98 102 103 103 104 106 107 109 113 114 112 110 109 104 95 90 92 99 116 141 149 145 137 135 135 127 111 124 273 281 282 282 286 289 292 295 297 297 297 296 294 294 295 294 294 293 292 292 293 292 291 289 287 286 284 283 285 287 289 290 292 293 291 290 289 288 287 288 290
44 61 73 82 87 91 98 105 106 100 94 89 78 69 76 87 93 95 97 100 103 104 104 105 107 110 115 117 114 108 100 87 75 68 76 97 115 133 142 142 140 152 177 229 255 269 278 280 281 285 289 289 290 292 293 293 292 290 290 290 291 291 291 291 292 292 292 292 292 291 289 288 287 287 289 292 292 290 290 292 293 292 291 291 291 292 294
66 72 77 84 93 98 101 100 94 83 78 82 89 91 91 92 94 95 95 97 99 99 99 99 100 102 106 108 110 111 108 92 75 78 105 115 120 133 148 168 206 239 260 269 270 276 282 282 282 284 285 285 286 287 288 288 289 289 289 290 289 289 288 288 288 290 292 293 292 291 290 290 290 292 292 293 291 289 289 290 291 291 292 292 292 293 295
75 77 77 78 80 81 82 83 81 78 80 87 93 98 99 95 89 86 89 93 94 93 93 93 95 97 100 104 109 112 102 83 105 155 162 146 125 156 231 276 281 276 275 275 274 276 279 280 281 283 283 284 285 286 286 286 288 288 288 288 288 287 288 290 291 292 292 291 289 289 291 291 291 291 292 290 288 287 287 288 290 292 293 293 293 293 294
63 61 55 52 51 48 45 54 69 80 89 97 102 106 104 93 78 75 86 97 99 97 94 96 100 102 104 106 112 114 83 68 108 151 177 240 288 283 284 286 283 278 279 279 278 280 283 282 283 284 284 283 284 284 285 287 289 289 289 290 291 290 291 292 292 291 291 291 290 290 291 291 291 291 290 288 286 286 287 290 293 295 296 295 295 295 296
66 65 63 64 67 68 73 83 91 95 97 101 105 107 97 85 82 90 99 102 102 96 89 92 101 114 115 110 107 103 87 87 162 235 269 286 290 288 289 288 284 282 284 286 286 287 289 288 288 288 288 286 286 288 289 289 291 292 292 293 294 294 294 294 293 291 290 291 291 290 289 290 290 290 289 286 286 288 291 294 296 297 297 297 297 297 298
85 87 87 85 83 82 84 89 93 94 92 90 91 93 92 90 86 85 89 96 105 107 102 96 88 170 184 186 197 218 249 271 286 293 295 297 297 296 295 295 294 292 292 293 292 293 294 295 296 298 298 297 296 297 297 296 296 296 296 296 296 296 295 294 294 293 292 292 291 291 291 291 291 289 287 286 287 290 293 296 297 297 297 298 299 300 301